Список аэропортов
Фактическая погода:

09 декабря, 19:00
Температура: +15°C (+13.2*)
Ветер: западный 8 м/с
Давление: *754 мм
неб. 990 м
неб. облачность
7500 м
Время (МСК)Темп. СВетерВлажностьДавлениеОблачностьОсадки
15:00+14З, 6 м/с50%1011 гПаясно
16:00+14З, 7 м/с52%1011 гПас прояснениями
17:00+14З, 7 м/с55%1011 гПаоблачно
18:00+14З, 7 м/с58%1011 гПаоблачно
19:00+13З, 7 м/с60%1011 гПас прояснениями
20:00+12З, 7 м/с62%1012 гПаясно
21:00+12З, 8 м/с62%1012 гПас прояснениями
22:00+12З, 8 м/с56%1011 гПаоблачно
23:00+13З, 7 м/с52%1011 гПаоблачно
10 декабря
00:00+13З, 5 м/с46%1011 гПамалооблачно
01:00+13СЗ, 6 м/с39%1011 гПаясно
02:00+13СЗ, 6 м/с44%1011 гПаясно
03:00+13СЗ, 7 м/с42%1012 гПаясно
04:00+13СЗ, 8 м/с40%1012 гПаясно
05:00+12СЗ, 6 м/с46%1012 гПаясно
06:00+11СЗ, 6 м/с52%1014 гПаясно
07:00+11СЗ, 6 м/с52%1015 гПаясно
08:00+11СЗ, 5 м/с53%1016 гПаясно
09:00+12СЗ, 5 м/с45%1016 гПаясно
10:00+11СЗ, 7 м/с48%1017 гПаясно
11:00+11СЗ, 6 м/с48%1018 гПаясно
12:00+12С, 4 м/с50%1019 гПаясно
13:00+13В, 1 м/с47%1018 гПаясно
14:00+14ЮВ, 2 м/с34%1018 гПаясно
15:00+14Ю, 1 м/с40%1018 гПаясно
16:00+14ЮЗ, 3 м/с42%1018 гПаясно
17:00+13ЮЗ, 4 м/с54%1019 гПаясно
18:00+13ЮЗ, 3 м/с63%1019 гПаясно
19:00+13ЮЗ, 3 м/с60%1019 гПаясно
20:00+12ЮЗ, 3 м/с57%1020 гПаясно
21:00+12ЮЗ, 1 м/с59%1021 гПаясно
22:00+11СЗ, 1 м/с63%1021 гПаясно
23:00+11С, 3 м/с67%1022 гПаясно
11 декабря
00:00+10С, 3 м/с68%1022 гПаясно
01:00+10СЗ, 3 м/с67%1022 гПаясно
02:00+10СЗ, 4 м/с65%1022 гПамалооблачно
03:00+9СЗ, 4 м/с64%1022 гПамалооблачно
04:00+9СЗ, 4 м/с65%1022 гПаясно
05:00+9СЗ, 3 м/с66%1022 гПамалооблачно
06:00+8СЗ, 3 м/с64%1021 гПаоблачно
07:00+8СЗ, 3 м/с60%1021 гПаоблачно
08:00+8СЗ, 4 м/с60%1021 гПаоблачно
09:00+9СЗ, 4 м/с61%1020 гПаоблачно
10:00+9СЗ, 3 м/с60%1020 гПаоблачно
11:00+10СЗ, 3 м/с61%1020 гПаоблачно
12:00+10СЗ, 3 м/с63%1019 гПаоблачно
13:00+11СЗ, 3 м/с64%1018 гПаоблачно
14:00+11СЗ, 2 м/с70%1016 гПаоблачно
15:00+12З, 1 м/с73%1015 гПаоблачно